Regional Weather Roundup
Issued by NWS

Home | Current Version | Previous Version | Graphics & Text | Print | Product List | Glossary On
Versions: 1 2 3 4 5 6 7 8 9 10 11 12 13 14 15 16 17 18 19 20 21 22 23 24 25 26 27 28 29 30 31 32 33 34 35 36 37 38 39 40 41 42 43 44 45 46 47 48 49 50
000
ASUS43 KTOP 230559
RWRKS

WEATHER ROUNDUP FOR KANSAS
NATIONAL WEATHER SERVICE GOODLAND KS
100 AM CDT TUE SEP 23 2014

NOTE:  "FAIR" INDICATES FEW OR NO CLOUDS BELOW 12,000 FEET WITH NO
SIGNIFICANT WEATHER AND/OR OBSTRUCTIONS TO VISIBILITY.

KSZ001>006-013>018-027>032-041>047-230700-
NORTHWEST KANSAS

CITY           SKY/WX    TMP DP  RH WIND       PRES   REMARKS
GOODLAND       TSTM      59  57  93 SE16      30.12F FOG
6HR MIN TEMP:  58; 6HR MAX TEMP:  70; 6HR PCP:  0.60;

HAYS           CLOUDY    66  45  45 S14       30.11F
HILL CITY      CLOUDY    68  45  43 S10G24    30.10R
6HR MIN TEMP:  65; 6HR MAX TEMP:  75; 6HR PCP: TRACE;

RUSSELL        CLOUDY    65  47  52 S14       30.11F
6HR MIN TEMP:  64; 6HR MAX TEMP:  72; 6HR PCP: TRACE;

$$

KSZ061>065-074>080-084>089-230700-
SOUTHWEST KANSAS

CITY           SKY/WX    TMP DP  RH WIND       PRES   REMARKS
DODGE CITY     MOCLDY    65  43  44 S17G25    30.14F
6HR MIN TEMP:  65; 6HR MAX TEMP:  74; 6HR PCP: TRACE;

ELKHART          N/A     64  56  75 S12         N/A
GARDEN CITY    MOCLDY    64  48  56 S14       30.12S
6HR MIN TEMP:  64; 6HR MAX TEMP:  75;

GREAT BEND     CLOUDY    64  45  48 S18       30.14S
LIBERAL        PTCLDY    68  50  52 S17G24    30.16R
$$

KSZ066>073-081>083-090>101-230700-
SOUTHEAST KANSAS

CITY           SKY/WX    TMP DP  RH WIND       PRES   REMARKS
CHANUTE        CLEAR     57  53  86 SE6       30.21S
6HR MIN TEMP:  55; 6HR MAX TEMP:  69;

COFFEYVILLE    PTCLDY    55  53  93 NE5       30.20F
6HR MIN TEMP:  54; 6HR MAX TEMP:  70;

HUTCHINSON     MOCLDY    62  49  62 SE14      30.17F
6HR MIN TEMP:  62; 6HR MAX TEMP:  75;

NEWTON         PTCLDY    57  46  67 SE9       30.21S
PARSONS        PTCLDY    55  53  93 CALM      30.22S
6HR MIN TEMP:  54; 6HR MAX TEMP:  70;

WICHITA INTL   MOCLDY    63  50  62 SE10      30.18F
6HR MIN TEMP:  63; 6HR MAX TEMP:  74;

WICHITA JABRA  MOCLDY    60  50  69 SE7       30.19S
6HR MIN TEMP:  60; 6HR MAX TEMP:  73;

WINFIELD       MOCLDY    60  53  77 SE5       30.20F
6HR MIN TEMP:  60; 6HR MAX TEMP:  72;

$$

KSZ007>012-019>026-033>040-048>060-102>105-230700-
NORTHEAST KANSAS

CITY           SKY/WX    TMP DP  RH WIND       PRES   REMARKS
CONCORDIA      MOCLDY    62  51  67 SE13      30.15F
6HR MIN TEMP:  58; 6HR MAX TEMP:  67;

EMPORIA        PTCLDY    56  53  90 SE6       30.21S
6HR MIN TEMP:  56; 6HR MAX TEMP:  68;

LAWRENCE       PTCLDY    51  49  92 E3        30.22F
6HR MIN TEMP:  51; 6HR MAX TEMP:  67;

MANHATTAN      MOCLDY    60  52  74 SW3       30.18F
6HR MIN TEMP:  59; 6HR MAX TEMP:  70;

OLATHE IND     PTCLDY    57  52  83 SE6       30.23F
6HR MIN TEMP:  55; 6HR MAX TEMP:  68;

OLATHE EXE     PTCLDY    57  51  80 SE5       30.22S
6HR MIN TEMP:  56; 6HR MAX TEMP:  68;

SALINA         PTCLDY    63  50  62 SE15      30.16F
6HR MIN TEMP:  63; 6HR MAX TEMP:  72;

TOPEKA BILLARD CLEAR     55  51  86 CALM      30.21F
6HR MIN TEMP:  54; 6HR MAX TEMP:  69;

TOPEKA FORBES  CLEAR     55  51  86 SE5       30.21S
6HR MIN TEMP:  54; 6HR MAX TEMP:  68;

$$



USA.gov is the U.S. government's official web portal to all federal, state and local government web resources and services.